User: anonymous   Login
Location: Oshawa
(43.9000°N, 78.8670°W)
Time: 11:10:24
(UTC-04:00)
Language:

CZ-4C R/B - Orbit

View from above orbital plane
View from above orbital plane
View from above satellite
View from above satellite

Ground track
Ground track

The orbit data is extracted from the following two-line orbital elements,

1 32290U 07055B   15214.31755824  .00004925  00000-0  16251-3 0  9999
2 32290 097.5419 298.1532 0077981 046.3309 354.3258 15.28967103426958
Epoch (UTC): 02 August 2015 07:37:17
Eccentricity: 0.0077981
inclination: 97.5419°
perigee height: 425 km
apogee height: 532 km
right ascension of ascending node: 298.1532°
argument of perigee: 46.3309°
revolutions per day: 15.28967103
mean anomaly at epoch: 354.3258°
orbit number at epoch: 42695

The dashed part of the orbit path shows where the satellite is in the earth's shadow,  

DLR